Tiempo cada hora Muravlenko

Hoy, 27 Octubre, Martes

Tiempo Temperatura Precipitaciones Viento Presión Humedad
00:00 -15°C° 0 mm 6 mps 756 mmHg 94%
01:00 -15°C° 0 mm 6 mps 756 mmHg 94%
02:00 -15°C° 0 mm 7 mps 756 mmHg 93%
03:00 -15°C° 0 mm 7 mps 756 mmHg 93%
04:00 -17°C° 0 mm 7 mps 756 mmHg 93%
05:00 -17°C° 0 mm 7 mps 757 mmHg 93%
06:00 -17°C° 0 mm 7 mps 757 mmHg 93%
07:00 -17°C° 0 mm 7 mps 757 mmHg 93%
08:00 -18°C° 0 mm 7 mps 757 mmHg 93%
09:00 -17°C° 0 mm 7 mps 757 mmHg 92%
10:00 -17°C° 0 mm 7 mps 758 mmHg 92%
11:00 -17°C° 0 mm 7 mps 758 mmHg 91%
12:00 -17°C° 0 mm 7 mps 758 mmHg 91%
13:00 -17°C° 0 mm 7 mps 757 mmHg 91%
14:00 -17°C° 0 mm 7 mps 757 mmHg 91%
15:00 -17°C° 0 mm 6 mps 758 mmHg 92%
16:00 -18°C° 0 mm 6 mps 758 mmHg 92%
17:00 -20°C° 0 mm 6 mps 758 mmHg 93%
18:00 -19°C° 0 mm 5 mps 758 mmHg 93%
19:00 -19°C° 0 mm 5 mps 758 mmHg 93%
20:00 -20°C° 0 mm 5 mps 758 mmHg 92%
21:00 -20°C° 0 mm 5 mps 757 mmHg 92%
22:00 -20°C° 0 mm 5 mps 757 mmHg 91%
23:00 -21°C° 0 mm 5 mps 757 mmHg 91%

Mañana, 28 Octubre, Miércoles

Tiempo Temperatura Precipitaciones Viento Presión Humedad
00:00 -21°C° 0 mm 5 mps 757 mmHg 90%
01:00 -21°C° 0 mm 5 mps 757 mmHg 90%
02:00 -21°C° 0 mm 5 mps 756 mmHg 89%
03:00 -21°C° 0 mm 5 mps 757 mmHg 88%
04:00 -22°C° 0 mm 5 mps 757 mmHg 87%
05:00 -22°C° 0 mm 5 mps 757 mmHg 86%
06:00 -22°C° 0 mm 5 mps 757 mmHg 86%
07:00 -22°C° 0 mm 5 mps 757 mmHg 85%
08:00 -22°C° 0 mm 5 mps 757 mmHg 84%
09:00 -21°C° 0 mm 5 mps 757 mmHg 82%
10:00 -20°C° 0 mm 5 mps 757 mmHg 80%
11:00 -19°C° 0 mm 5 mps 757 mmHg 78%
12:00 -19°C° 0 mm 5 mps 757 mmHg 79%
13:00 -19°C° 0 mm 5 mps 758 mmHg 79%
14:00 -18°C° 0 mm 4 mps 758 mmHg 80%
15:00 -18°C° 0 mm 4 mps 758 mmHg 81%
16:00 -19°C° 0 mm 4 mps 758 mmHg 82%
17:00 -20°C° 0 mm 4 mps 759 mmHg 83%
18:00 -20°C° 0 mm 4 mps 759 mmHg 82%
19:00 -19°C° 0 mm 3 mps 759 mmHg 81%
20:00 -19°C° 0 mm 3 mps 759 mmHg 80%
21:00 -18°C° 0 mm 2 mps 759 mmHg 79%
22:00 -18°C° 0 mm 2 mps 759 mmHg 77%
23:00 -16°C° 0 mm 1 mps 759 mmHg 75%

Pasado mañana, 29 Octubre, Jueves

Tiempo Temperatura Precipitaciones Viento Presión Humedad
00:00 -16°C° 0 mm 1 mps 758 mmHg 74%
01:00 -16°C° 0 mm 1 mps 758 mmHg 72%
02:00 -16°C° 0 mm 0 mps 758 mmHg 70%
03:00 -16°C° 0 mm 1 mps 757 mmHg 69%
04:00 -17°C° 0 mm 2 mps 757 mmHg 69%
05:00 -18°C° 0 mm 3 mps 757 mmHg 68%
06:00 -18°C° 0 mm 4 mps 756 mmHg 69%
07:00 -17°C° 0 mm 4 mps 755 mmHg 70%
08:00 -18°C° 0 mm 5 mps 755 mmHg 71%
09:00 -17°C° 0 mm 6 mps 754 mmHg 71%
10:00 -17°C° 0 mm 7 mps 753 mmHg 72%
11:00 -16°C° 0 mm 8 mps 752 mmHg 72%
12:00 -15°C° 0.6 mm 8 mps 751 mmHg 79%
13:00 -15°C° 0.6 mm 9 mps 750 mmHg 86%
14:00 -14°C° 0.6 mm 9 mps 749 mmHg 93%
15:00 -14°C° 1 mm 9 mps 749 mmHg 94%
16:00 -13°C° 1 mm 8 mps 748 mmHg 94%
17:00 -12°C° 1 mm 8 mps 747 mmHg 94%
18:00 -12°C° 0.4 mm 7 mps 747 mmHg 94%
19:00 -11°C° 0.4 mm 6 mps 747 mmHg 94%
20:00 -11°C° 0.4 mm 6 mps 747 mmHg 94%
21:00 -10°C° 0.2 mm 5 mps 747 mmHg 95%
22:00 -9°C° 0.2 mm 4 mps 747 mmHg 95%
23:00 -8°C° 0.2 mm 3 mps 747 mmHg 95%

30 Octubre, Viernes

Tiempo Temperatura Precipitaciones Viento Presión Humedad
00:00 -8°C° 0 mm 3 mps 748 mmHg 95%
01:00 -6°C° 0 mm 2 mps 748 mmHg 96%
02:00 -6°C° 0 mm 2 mps 748 mmHg 96%
03:00 -6°C° 0 mm 2 mps 749 mmHg 96%
04:00 -3°C° 0 mm 1 mps 749 mmHg 96%
05:00 -3°C° 0 mm 1 mps 750 mmHg 96%
06:00 -4°C° 0.1 mm 2 mps 750 mmHg 96%
07:00 -3°C° 0.1 mm 2 mps 751 mmHg 96%
08:00 -4°C° 0.1 mm 3 mps 751 mmHg 97%
09:00 -2°C° 0 mm 3 mps 751 mmHg 97%
10:00 -2°C° 0 mm 3 mps 752 mmHg 97%
11:00 -1°C° 0 mm 3 mps 752 mmHg 97%
12:00 -2°C° 0 mm 4 mps 752 mmHg 96%
13:00 -2°C° 0 mm 4 mps 752 mmHg 96%
14:00 -2°C° 0 mm 4 mps 752 mmHg 95%
15:00 -3°C° 0 mm 4 mps 752 mmHg 94%
16:00 -4°C° 0 mm 4 mps 753 mmHg 93%
17:00 -4°C° 0 mm 4 mps 753 mmHg 93%
18:00 -4°C° 0 mm 4 mps 753 mmHg 94%
19:00 -3°C° 0 mm 4 mps 753 mmHg 95%
20:00 -3°C° 0 mm 4 mps 753 mmHg 96%
21:00 -2°C° 0 mm 4 mps 753 mmHg 97%
22:00 -2°C° 0 mm 4 mps 753 mmHg 97%
23:00 -1°C° 0 mm 4 mps 753 mmHg 97%

31 Octubre, Sábado

Tiempo Temperatura Precipitaciones Viento Presión Humedad
00:00 -1°C° 0 mm 4 mps 753 mmHg 98%
01:00 -1°C° 0 mm 4 mps 752 mmHg 98%
02:00 0°C° 0 mm 3 mps 752 mmHg 98%
03:00 -1°C° 0 mm 4 mps 752 mmHg 98%
04:00 -1°C° 0 mm 4 mps 752 mmHg 98%
05:00 -1°C° 0 mm 4 mps 752 mmHg 98%
06:00 -1°C° 0 mm 4 mps 751 mmHg 98%
07:00 -1°C° 0 mm 5 mps 751 mmHg 98%
08:00 -1°C° 0 mm 5 mps 750 mmHg 98%
09:00 -2°C° 0.6 mm 6 mps 750 mmHg 98%
10:00 -2°C° 0.6 mm 7 mps 749 mmHg 97%
11:00 -2°C° 0.6 mm 7 mps 749 mmHg 97%
12:00 -2°C° 0.1 mm 7 mps 748 mmHg 96%
13:00 -2°C° 0.1 mm 8 mps 748 mmHg 94%
14:00 -2°C° 0.1 mm 8 mps 748 mmHg 93%
15:00 -4°C° 0 mm 8 mps 747 mmHg 92%
16:00 -3°C° 0 mm 7 mps 747 mmHg 91%
17:00 -4°C° 0 mm 7 mps 747 mmHg 90%
18:00 -4°C° 0.2 mm 7 mps 746 mmHg 93%
19:00 -5°C° 0.2 mm 8 mps 746 mmHg 95%
20:00 -5°C° 0.2 mm 8 mps 745 mmHg 97%
21:00 -4°C° 0.7 mm 8 mps 745 mmHg 97%
22:00 -4°C° 0.7 mm 8 mps 744 mmHg 97%
23:00 -2°C° 0.7 mm 7 mps 744 mmHg 97%

1 Noviembre, Domingo

Tiempo Temperatura Precipitaciones Viento Presión Humedad
00:00 -2°C° 0.5 mm 7 mps 743 mmHg 97%
01:00 -2°C° 0.5 mm 6 mps 743 mmHg 98%
02:00 -1°C° 0.5 mm 5 mps 743 mmHg 98%
03:00 -2°C° 0.6 mm 6 mps 743 mmHg 98%
04:00 -3°C° 0.6 mm 6 mps 743 mmHg 97%
05:00 -3°C° 0.6 mm 7 mps 743 mmHg 97%
06:00 -3°C° 0.1 mm 7 mps 743 mmHg 96%
07:00 -5°C° 0.1 mm 8 mps 743 mmHg 96%
08:00 -5°C° 0.1 mm 8 mps 743 mmHg 95%
09:00 -5°C° 0.1 mm 8 mps 743 mmHg 95%
10:00 -5°C° 0.1 mm 8 mps 743 mmHg 95%
11:00 -4°C° 0.1 mm 8 mps 744 mmHg 95%
12:00 -4°C° 0.1 mm 8 mps 744 mmHg 95%
13:00 -5°C° 0.1 mm 8 mps 744 mmHg 96%
14:00 -5°C° 0.1 mm 8 mps 744 mmHg 96%
15:00 -5°C° 0.2 mm 8 mps 745 mmHg 96%
16:00 -5°C° 0.2 mm 8 mps 745 mmHg 95%
17:00 -5°C° 0.2 mm 8 mps 745 mmHg 95%
18:00 -5°C° 0.1 mm 8 mps 746 mmHg 95%
19:00 -5°C° 0.1 mm 9 mps 746 mmHg 94%
20:00 -5°C° 0.1 mm 9 mps 747 mmHg 94%
21:00 -5°C° 0.1 mm 9 mps 747 mmHg 94%
22:00 -5°C° 0.1 mm 9 mps 747 mmHg 93%
23:00 -5°C° 0.1 mm 9 mps 748 mmHg 92%
Mostrar más

Necesitamos Su Consentimiento

Meteoprog y nuestros Proveedores de Servicios pueden almacenar y acceder a sus datos personales como cookies, identificadores de dispositivo u otras tecnologías similares de su dispositivo y procesar dichos datos para personalizar contenido y anuncios, además de ofrecer funciones de redes sociales y analizar el tráfico.

  • Almacenar y/o acceder a información en su dispositivo

    Se puede almacenar o acceder a cookies, identificadores de dispositivo u otra información de su dispositivo para los fines anteriormente indicados.

  • Anuncios y contenido personalizados, medición de anuncios y contenido, percepciones del público, y desarrollo de productos

    Los anuncios y el contenido pueden personalizarse en base a su perfil. Se pueden añadir más datos para personalizar mejor los anuncios y contenidos. Se puede medir el rendimiento de los anuncios y contenidos. Se puede obtener la percepción sobre el público que ha visto los anuncios y contenidos. Dichos datos pueden usarse para desarrollar o mejorar la experiencia del usuario, sistemas y software.

Al hacer clic en ‘Estoy De Acuerdo’ usted permitirá el uso de las cookies, identificadores de dispositivo, balizas web u otras tecnologías similares indicadas. Su configuración puede cambiarse desde el navegador de su dispositivo.

Para ciertos fines, los intereses legítimos pueden ser considerados por encima del consentimiento. Puede leer más sobre ello en nuestra Política de Privacidad y Cookies.